| time (UTC) | temp F | wind direction | speed MPH | gust MPH | rain 1hr in | rain 24hr in | rain mn in | humidity % | barometer mb |
| 20260905111035 | 59 | 351 | 3.0 | 3.0 | 0.00 | 0.00 | 0.00 | 73 | 1000.0 |
| 20260905110119 | 61 | 58 | 2.0 | 4.0 | 0.00 | 0.00 | 0.00 | 72 | 999.9 |
| 20260905105125 | 60 | 347 | 2.0 | 3.0 | 0.00 | 0.00 | 0.00 | 75 | 1000.0 |
| 20260905104037 | 58 | 1 | 3.0 | 4.0 | 0.00 | 0.00 | 0.00 | 79 | 999.7 |
| 20260905102125 | 59 | 327 | 1.0 | 2.0 | 0.00 | 0.00 | 0.00 | 78 | 999.6 |
| 20260905101038 | 59 | 11 | 1.0 | 2.0 | 0.00 | 0.00 | 0.00 | 75 | 999.8 |
| 20260905100121 | 60 | 99 | 0.0 | 2.0 | 0.00 | 0.00 | 0.00 | 73 | 999.2 |
| 20260905095125 | 58 | 0.0 | 0.0 | 0.00 | 0.00 | 0.00 | 79 | 999.3 | |
| 20260905094057 | 57 | 0.0 | 0.0 | 0.00 | 0.00 | 0.00 | 76 | 999.1 | |
| 20260905093101 | 59 | 132 | 1.0 | 1.0 | 0.00 | 0.00 | 0.00 | 73 | 999.0 |
| 20260905092145 | 59 | 0.0 | 0.0 | 0.00 | 0.00 | 0.00 | 74 | 998.9 | |
| 20260905091037 | 61 | 144 | 1.0 | 1.0 | 0.00 | 0.00 | 0.00 | 70 | 999.0 |
| 20260905090101 | 64 | 153 | 1.0 | 2.0 | 0.00 | 0.00 | 0.00 | 61 | 998.8 |
| 20260905085145 | 62 | 141 | 1.0 | 2.0 | 0.00 | 0.00 | 0.00 | 64 | 998.8 |
| 20260905084057 | 63 | 144 | 2.0 | 3.0 | 0.00 | 0.00 | 0.00 | 64 | 998.8 |
| 20260905083101 | 62 | 143 | 0.0 | 1.0 | 0.00 | 0.00 | 0.00 | 66 | 998.7 |
| 20260905082125 | 60 | 0.0 | 0.0 | 0.00 | 0.00 | 0.00 | 76 | 998.6 | |
| 20260905081037 | 59 | 0.0 | 0.0 | 0.00 | 0.00 | 0.00 | 79 | 998.8 | |
| 20260905080101 | 59 | 0.0 | 0.0 | 0.00 | 0.00 | 0.00 | 79 | 998.5 | |
| 20260905075125 | 60 | 0.0 | 0.0 | 0.00 | 0.00 | 0.00 | 70 | 998.5 | |
| 20260905074037 | 59 | 152 | 1.0 | 1.0 | 0.00 | 0.00 | 0.00 | 80 | 998.4 |
| 20260905073101 | 59 | 0.0 | 0.0 | 0.00 | 0.00 | 0.00 | 76 | 998.3 | |
| 20260905072125 | 57 | 0.0 | 0.0 | 0.00 | 0.00 | 0.00 | 83 | 998.2 | |
| 20260905071037 | 56 | 0.0 | 0.0 | 0.00 | 0.00 | 0.00 | 87 | 998.2 | |
| 20260905070101 | 55 | 0.0 | 0.0 | 0.00 | 0.00 | 0.00 | 90 | 998.1 | |
| 20260905065125 | 55 | 0.0 | 0.0 | 0.00 | 0.00 | 0.00 | 90 | 998.0 | |
| 20260905064037 | 54 | 0.0 | 0.0 | 0.00 | 0.00 | 0.00 | 90 | 997.9 | |
| 20260905063101 | 53 | 0.0 | 0.0 | 0.00 | 0.00 | 0.00 | 93 | 997.9 | |
| 20260905062125 | 52 | 0.0 | 0.0 | 0.00 | 0.00 | 0.00 | 95 | 997.8 | |
| 20260905061037 | 51 | 0.0 | 0.0 | 0.00 | 0.00 | 0.00 | 95 | 997.9 | |
| 20260905055125 | 50 | 0.0 | 0.0 | 0.00 | 0.00 | 0.00 | 97 | 997.6 | |
| 20260905054037 | 50 | 0.0 | 0.0 | 0.00 | 0.00 | 0.00 | 97 | 997.7 | |
| 20260905053101 | 49 | 277 | 1.0 | 1.0 | 0.00 | 0.00 | 0.00 | 97 | 997.7 |
| 20260905052125 | 50 | 0.0 | 0.0 | 0.00 | 0.00 | 0.00 | 96 | 997.2 | |
| 20260905051037 | 49 | 270 | 0.0 | 1.0 | 0.00 | 0.00 | 0.00 | 96 | 997.3 |
| 20260905045125 | 49 | 0.0 | 0.0 | 0.00 | 0.00 | 0.00 | 94 | 997.4 | |
| 20260905044037 | 49 | 0.0 | 0.0 | 0.00 | 0.00 | 0.00 | 95 | 997.5 | |
| 20260905043101 | 49 | 0.0 | 0.0 | 0.00 | 0.00 | 0.00 | 95 | 997.1 | |
| 20260905042125 | 50 | 264 | 1.0 | 1.0 | 0.00 | 0.00 | 0.00 | 93 | 997.3 |
| 20260905041038 | 52 | 210 | 0.0 | 1.0 | 0.00 | 0.00 | 0.00 | 86 | 997.3 |
| 20260905040100 | 52 | 0.0 | 0.0 | 0.00 | 0.00 | 0.00 | 85 | 996.9 | |
| 20260905035124 | 55 | 144 | 3.0 | 4.0 | 0.00 | 0.00 | 0.00 | 78 | 997.2 |
| 20260905034036 | 55 | 101 | 5.0 | 7.0 | 0.00 | 0.00 | 0.00 | 77 | 996.8 |
| 20260905033101 | 53 | 104 | 4.0 | 5.0 | 0.00 | 0.00 | 0.00 | 81 | 996.8 |
| 20260905032124 | 50 | 139 | 3.0 | 3.0 | 0.00 | 0.00 | 0.00 | 96 | 996.8 |
| 20260905031036 | 49 | 0.0 | 0.0 | 0.00 | 0.00 | 0.00 | 97 | 996.6 | |
| 20260905030120 | 49 | 0.0 | 0.0 | 0.00 | 0.00 | 0.00 | 97 | 996.8 | |
| 20260905025125 | 49 | 0.0 | 0.0 | 0.00 | 0.00 | 0.00 | 96 | 996.6 | |
| 20260905024036 | 49 | 0.0 | 0.0 | 0.00 | 0.00 | 0.00 | 96 | 996.6 | |
| 20260905023100 | 49 | 0.0 | 0.0 | 0.00 | 0.00 | 0.00 | 96 | 996.6 | |
| 20260905022124 | 48 | 0.0 | 0.0 | 0.00 | 0.00 | 0.00 | 98 | 996.7 | |
| 20260905021056 | 48 | 0.0 | 0.0 | 0.00 | 0.00 | 0.00 | 97 | 996.6 | |
| 20260905020100 | 48 | 315 | 1.0 | 2.0 | 0.00 | 0.00 | 0.00 | 98 | 996.4 |
| 20260905015124 | 47 | 0.0 | 0.0 | 0.00 | 0.00 | 0.00 | 98 | 996.5 | |
| 20260905014036 | 47 | 0.0 | 0.0 | 0.00 | 0.00 | 0.00 | 98 | 996.4 | |
| 20260905013100 | 48 | 0.0 | 0.0 | 0.00 | 0.00 | 0.00 | 97 | 996.4 | |
| 20260905012124 | 47 | 295 | 1.0 | 1.0 | 0.00 | 0.00 | 0.00 | 98 | 996.3 |
| 20260905011036 | 47 | 312 | 0.0 | 1.0 | 0.00 | 0.00 | 0.00 | 97 | 996.3 |
| 20260905010100 | 48 | 264 | 0.0 | 1.0 | 0.00 | 0.00 | 0.00 | 97 | 996.4 |
| 20260905005124 | 47 | 310 | 1.0 | 1.0 | 0.00 | 0.00 | 0.00 | 97 | 996.4 |
| 20260905004036 | 47 | 327 | 1.0 | 2.0 | 0.00 | 0.00 | 0.00 | 95 | 996.3 |
| 20260905003100 | 47 | 291 | 2.0 | 4.0 | 0.00 | 0.00 | 0.00 | 95 | 996.4 |
| 20260905002124 | 47 | 304 | 2.0 | 2.0 | 0.00 | 0.00 | 0.00 | 98 | 996.3 |
| 20260905001036 | 46 | 291 | 1.0 | 2.0 | 0.00 | 0.01 | 0.00 | 99 | 996.4 |
| 20260905000100 | 47 | 321 | 1.0 | 1.0 | 0.00 | 0.01 | 0.00 | 98 | 996.3 |
| 20260904235144 | 47 | 311 | 1.0 | 3.0 | 0.00 | 0.01 | 0.00 | 98 | 996.2 |
| 20260904234035 | 47 | 294 | 0.0 | 1.0 | 0.00 | 0.01 | 0.00 | 98 | 996.4 |
| 20260904233100 | 47 | 311 | 1.0 | 3.0 | 0.00 | 0.02 | 0.00 | 98 | 996.4 |
| 20260904232123 | 47 | 324 | 1.0 | 3.0 | 0.00 | 0.02 | 0.00 | 97 | 996.2 |
| 20260904231036 | 47 | 0.0 | 0.0 | 0.00 | 0.02 | 0.00 | 99 | 996.3 | |
| 20260904230100 | 47 | 312 | 1.0 | 3.0 | 0.00 | 0.03 | 0.03 | 99 | 996.5 |
| 20260904225126 | 47 | 326 | 1.0 | 1.0 | 0.00 | 0.03 | 0.03 | 99 | 996.3 |
| 20260904224038 | 47 | 324 | 1.0 | 2.0 | 0.00 | 0.04 | 0.03 | 99 | 996.2 |
| 20260904223102 | 47 | 0.0 | 0.0 | 0.00 | 0.04 | 0.03 | 99 | 996.3 | |
| 20260904222126 | 47 | 300 | 0.0 | 1.0 | 0.00 | 0.04 | 0.03 | 99 | 996.4 |
| 20260904221038 | 48 | 0.0 | 0.0 | 0.00 | 0.04 | 0.03 | 99 | 996.2 | |
| 20260904215126 | 48 | 0.0 | 0.0 | 0.00 | 0.05 | 0.03 | 99 | 996.4 | |
| 20260904214038 | 48 | 0.0 | 0.0 | 0.00 | 0.05 | 0.03 | 99 | 996.2 | |
| 20260904213102 | 48 | 0.0 | 0.0 | 0.00 | 0.05 | 0.03 | 99 | 996.1 | |
| 20260904212126 | 49 | 0.0 | 0.0 | 0.00 | 0.05 | 0.03 | 99 | 996.1 | |
| 20260904211037 | 48 | 0.0 | 0.0 | 0.00 | 0.05 | 0.03 | 99 | 996.0 | |
| 20260904205125 | 49 | 0.0 | 0.0 | 0.00 | 0.05 | 0.03 | 99 | 996.1 | |
| 20260904204057 | 50 | 0.0 | 0.0 | 0.00 | 0.05 | 0.03 | 99 | 996.0 | |
| 20260904203101 | 50 | 0.0 | 0.0 | 0.00 | 0.05 | 0.03 | 99 | 996.0 | |
| 20260904202125 | 50 | 0.0 | 0.0 | 0.00 | 0.05 | 0.03 | 99 | 996.2 | |
| 20260904201037 | 50 | 0.0 | 0.0 | 0.00 | 0.05 | 0.03 | 99 | 996.1 | |
| 20260904200101 | 51 | 0.0 | 0.0 | 0.00 | 0.05 | 0.03 | 99 | 995.9 | |
| 20260904195125 | 50 | 0.0 | 0.0 | 0.00 | 0.05 | 0.03 | 99 | 996.1 | |
| 20260904194037 | 50 | 336 | 0.0 | 1.0 | 0.00 | 0.06 | 0.03 | 98 | 996.0 |
| 20260904193101 | 50 | 323 | 0.0 | 2.0 | 0.00 | 0.06 | 0.03 | 98 | 996.1 |
| 20260904192125 | 50 | 0.0 | 0.0 | 0.00 | 0.06 | 0.03 | 97 | 996.0 | |
| 20260904191037 | 51 | 0.0 | 0.0 | 0.00 | 0.06 | 0.03 | 97 | 996.0 | |
| 20260904190101 | 53 | 0.0 | 0.0 | 0.00 | 0.06 | 0.03 | 97 | 996.0 | |
| 20260904185146 | 53 | 0.0 | 0.0 | 0.00 | 0.06 | 0.03 | 95 | 996.0 | |
| 20260904184037 | 54 | 0.0 | 0.0 | 0.00 | 0.06 | 0.03 | 95 | 995.9 | |
| 20260904183101 | 54 | 0.0 | 0.0 | 0.00 | 0.06 | 0.03 | 93 | 996.1 | |
| 20260904182125 | 54 | 0.0 | 0.0 | 0.00 | 0.06 | 0.03 | 91 | 996.0 | |
| 20260904181037 | 55 | 0.0 | 0.0 | 0.00 | 0.06 | 0.03 | 92 | 995.9 | |
| 20260904180101 | 55 | 322 | 0.0 | 1.0 | 0.00 | 0.06 | 0.03 | 90 | 995.7 |
| 20260904175145 | 56 | 0.0 | 0.0 | 0.00 | 0.06 | 0.03 | 90 | 995.8 | |
| 20260904174037 | 56 | 0.0 | 0.0 | 0.00 | 0.06 | 0.03 | 89 | 995.9 | |
| 20260904173121 | 56 | 87 | 1.0 | 3.0 | 0.00 | 0.06 | 0.03 | 88 | 995.8 |
| 20260904172125 | 56 | 335 | 1.0 | 2.0 | 0.00 | 0.06 | 0.03 | 88 | 995.9 |
| 20260904171037 | 56 | 354 | 0.0 | 2.0 | 0.00 | 0.06 | 0.03 | 88 | 995.8 |
| 20260904170101 | 57 | 13 | 1.0 | 2.0 | 0.00 | 0.06 | 0.03 | 88 | 995.9 |
| 20260904165125 | 57 | 348 | 3.0 | 6.0 | 0.00 | 0.06 | 0.03 | 87 | 995.9 |
| 20260904164037 | 57 | 355 | 2.0 | 3.0 | 0.00 | 0.06 | 0.03 | 86 | 995.9 |
| 20260904163101 | 57 | 347 | 3.0 | 4.0 | 0.00 | 0.06 | 0.03 | 87 | 995.9 |
| 20260904162125 | 57 | 342 | 0.0 | 2.0 | 0.00 | 0.06 | 0.03 | 88 | 995.8 |
| 20260904161037 | 58 | 346 | 3.0 | 4.0 | 0.00 | 0.06 | 0.03 | 85 | 996.0 |
| 20260904155125 | 57 | 354 | 2.0 | 4.0 | 0.00 | 0.06 | 0.03 | 86 | 996.0 |
| 20260904154037 | 57 | 1 | 2.0 | 4.0 | 0.00 | 0.06 | 0.03 | 88 | 996.0 |
| 20260904153101 | 57 | 313 | 3.0 | 5.0 | 0.00 | 0.06 | 0.03 | 86 | 996.1 |
| 20260904152125 | 56 | 320 | 3.0 | 5.0 | 0.00 | 0.06 | 0.03 | 87 | 996.1 |
| 20260904151037 | 56 | 353 | 2.0 | 3.0 | 0.00 | 0.06 | 0.03 | 88 | 996.3 |
| 20260904145125 | 57 | 349 | 1.0 | 2.0 | 0.00 | 0.06 | 0.03 | 86 | 996.4 |
| 20260904144037 | 58 | 345 | 4.0 | 7.0 | 0.00 | 0.06 | 0.03 | 83 | 996.2 |
| 20260904143101 | 60 | 354 | 4.0 | 7.0 | 0.00 | 0.06 | 0.03 | 79 | 996.4 |
| 20260904142125 | 59 | 343 | 1.0 | 1.0 | 0.00 | 0.06 | 0.03 | 81 | 996.4 |
| 20260904141037 | 58 | 11 | 2.0 | 5.0 | 0.00 | 0.06 | 0.03 | 83 | 996.6 |
| 20260904140101 | 58 | 356 | 3.0 | 5.0 | 0.00 | 0.06 | 0.03 | 84 | 996.4 |
| 20260904135125 | 58 | 335 | 2.0 | 5.0 | 0.00 | 0.06 | 0.03 | 84 | 996.5 |
| 20260904134037 | 59 | 15 | 2.0 | 3.0 | 0.00 | 0.06 | 0.03 | 83 | 996.6 |
| 20260904133101 | 59 | 23 | 3.0 | 4.0 | 0.00 | 0.06 | 0.03 | 82 | 996.8 |
| 20260904132125 | 59 | 12 | 3.0 | 8.0 | 0.00 | 0.06 | 0.03 | 80 | 996.8 |
| 20260904131037 | 59 | 356 | 3.0 | 5.0 | 0.00 | 0.06 | 0.03 | 81 | 997.1 |
| 20260904130101 | 59 | 324 | 2.0 | 4.0 | 0.00 | 0.06 | 0.03 | 81 | 997.2 |
| 20260904125125 | 59 | 358 | 3.0 | 4.0 | 0.00 | 0.06 | 0.03 | 81 | 996.8 |
| 20260904124037 | 58 | 337 | 2.0 | 6.0 | 0.00 | 0.06 | 0.03 | 82 | 996.8 |
| 20260904123101 | 58 | 6 | 2.0 | 3.0 | 0.00 | 0.06 | 0.03 | 83 | 997.1 |
| 20260904122124 | 58 | 291 | 1.0 | 3.0 | 0.00 | 0.06 | 0.03 | 83 | 997.3 |
| 20260904121037 | 59 | 346 | 2.0 | 2.0 | 0.00 | 0.06 | 0.03 | 81 | 997.3 |
| 20260904120100 | 60 | 24 | 3.0 | 4.0 | 0.00 | 0.06 | 0.03 | 79 | 997.3 |
| 20260904115205 | 60 | 44 | 1.0 | 3.0 | 0.00 | 0.06 | 0.03 | 80 | 997.4 |
| 20260904114036 | 60 | 9 | 3.0 | 4.0 | 0.00 | 0.06 | 0.03 | 80 | 997.5 |
| 20260904113100 | 58 | 18 | 1.0 | 4.0 | 0.00 | 0.06 | 0.03 | 82 | 997.5 |
| 20260904112124 | 59 | 104 | 2.0 | 4.0 | 0.00 | 0.06 | 0.03 | 81 | 997.7 |